Location: Hartman Creek State Park
(44.3257°N, 89.2134°W)
Time: 04:24:32
(UTC-05:00)

Terra - Visible Passes

Search period start: 26 March 2017 00:00
Search period end: 05 April 2017 00:00
Orbit: 702 x 703 km, 98.2° (Epoch: 24 March)

Date Brightness Start Highest point End Pass type
(mag) Time Alt. Az. Time Alt. Az. Time Alt. Az.
26 Mar 3.7 22:43:39 25° N 22:43:39 25° N 22:45:37 10° N visible
27 Mar 3.8 21:47:55 18° NE 21:47:55 18° NE 21:49:48 10° NNE visible
27 Mar 4.3 23:26:48 19° NNW 23:26:48 19° NNW 23:28:16 10° NNW visible
28 Mar 3.5 22:31:05 26° N 22:31:05 26° N 22:33:18 10° N visible
29 Mar 4.8 00:09:57 10° NW 00:09:57 10° NW 00:10:04 10° NW visible
29 Mar 3.8 21:35:21 16° NE 21:35:21 16° NE 21:37:11 10° NNE visible
29 Mar 3.9 23:14:14 24° NNW 23:14:14 24° NNW 23:16:09 10° NNW visible
30 Mar 3.4 22:18:30 27° NNE 22:18:30 27° NNE 22:20:57 10° N visible
30 Mar 4.6 23:57:23 14° NW 23:57:23 14° NW 23:58:17 10° NW visible
31 Mar 3.9 21:22:47 13° NE 21:22:47 13° NE 21:24:19 10° NNE visible
31 Mar 3.6 23:01:40 29° NNW 23:01:40 29° NNW 23:03:58 10° NNW visible
01 Apr 3.4 22:05:57 25° NNE 22:05:57 25° NNE 22:08:33 10° N visible
01 Apr 4.3 23:44:49 18° NW 23:44:49 18° NW 23:46:20 10° NNW visible
02 Apr 4.1 21:10:14 10° NE 21:10:14 10° NE 21:10:41 10° NE visible
02 Apr 3.3 22:49:06 33° N 22:49:06 33° N 22:51:44 10° N visible
03 Apr 3.4 21:53:23 22° NE 21:53:23 22° NE 21:56:04 10° NNE visible
03 Apr 4.0 23:32:16 23° NW 23:32:16 23° NW 23:34:18 10° NNW visible
04 Apr 3.1 22:36:32 35° N 22:36:32 35° N 22:39:27 10° N visible
